owner,sensor,date,latitude,longitude,air_pressure(mBar),qcFlag 
TABS,ioos:station:wmo:42043:1,2010-11-01T00:00:00Z,28.9818,-94.9186,1014.73,11111222 
TABS,ioos:station:wmo:42043:1,2010-11-01T00:30:00Z,28.9818,-94.9186,1014.77,11111222 
TABS,ioos:station:wmo:42043:1,2010-11-01T01:00:00Z,28.9818,-94.9186,1015.01,11111222 
TABS,ioos:station:wmo:42043:1,2010-11-01T01:30:00Z,28.9818,-94.9186,1015.4,11111222 
TABS,ioos:station:wmo:42043:1,2010-11-01T02:00:00Z,28.9818,-94.9186,1015.72,11111222 
TABS,ioos:station:wmo:42043:1,2010-11-01T02:30:00Z,28.9818,-94.9186,1016.06,11111222 
TABS,ioos:station:wmo:42043:1,2010-11-01T03:00:00Z,28.9818,-94.9186,1016.31,11111222 
TABS,ioos:station:wmo:42043:1,2010-11-01T03:30:00Z,28.9818,-94.9186,1016.1,11111222 
TABS,ioos:station:wmo:42043:1,2010-11-01T04:00:00Z,28.9818,-94.9186,1015.88,11111222 
TABS,ioos:station:wmo:42043:1,2010-11-01T04:30:00Z,28.9818,-94.9186,1015.75,11111222 
TABS,ioos:station:wmo:42043:1,2010-11-01T05:00:00Z,28.9818,-94.9186,1015.52,11111222 
TABS,ioos:station:wmo:42043:1,2010-11-01T05:30:00Z,28.9818,-94.9186,1015.23,11111222 
TABS,ioos:station:wmo:42043:1,2010-11-01T06:00:00Z,28.9818,-94.9186,1015.39,11111222 
TABS,ioos:station:wmo:42043:1,2010-11-01T06:30:00Z,28.9818,-94.9186,1015.38,11111222 
TABS,ioos:station:wmo:42043:1,2010-11-01T07:00:00Z,28.9818,-94.9186,1015.6,11111222 
TABS,ioos:station:wmo:42043:1,2010-11-01T07:30:00Z,28.9818,-94.9186,1015.47,11111222 
TABS,ioos:station:wmo:42043:1,2010-11-01T08:00:00Z,28.9818,-94.9186,1015.17,11111222 
TABS,ioos:station:wmo:42043:1,2010-11-01T08:30:00Z,28.9818,-94.9186,1015.34,11111222 
TABS,ioos:station:wmo:42043:1,2010-11-01T09:00:00Z,28.9818,-94.9186,1015.1,11111222 
TABS,ioos:station:wmo:42043:1,2010-11-01T09:30:00Z,28.9818,-94.9186,1014.82,11111222 
TABS,ioos:station:wmo:42043:1,2010-11-01T10:00:00Z,28.9818,-94.9186,1014.95,11111222 
TABS,ioos:station:wmo:42043:1,2010-11-01T10:30:00Z,28.9818,-94.9186,1015.23,11111222 
TABS,ioos:station:wmo:42043:1,2010-11-01T11:00:00Z,28.9818,-94.9186,1015.43,11111222 
TABS,ioos:station:wmo:42043:1,2010-11-01T11:30:00Z,28.9818,-94.9186,1015.56,11111222 
TABS,ioos:station:wmo:42043:1,2010-11-01T12:00:00Z,28.9818,-94.9186,1015.66,11111222 
TABS,ioos:station:wmo:42043:1,2010-11-01T12:30:00Z,28.9818,-94.9186,1016.16,11111222 
TABS,ioos:station:wmo:42043:1,2010-11-01T13:00:00Z,28.9818,-94.9186,1016.25,11111222 
TABS,ioos:station:wmo:42043:1,2010-11-01T13:30:00Z,28.9818,-94.9186,1016.64,11111222 
TABS,ioos:station:wmo:42043:1,2010-11-01T14:00:00Z,28.9818,-94.9186,1017.15,11111222 
TABS,ioos:station:wmo:42043:1,2010-11-01T14:30:00Z,28.9818,-94.9186,1017.1,11111222 
TABS,ioos:station:wmo:42043:1,2010-11-01T15:00:00Z,28.9818,-94.9186,1017.48,11111222 
TABS,ioos:station:wmo:42043:1,2010-11-01T15:30:00Z,28.9818,-94.9186,1017.62,11111222 
TABS,ioos:station:wmo:42043:1,2010-11-01T16:00:00Z,28.9818,-94.9186,1017.72,11111222 
TABS,ioos:station:wmo:42043:1,2010-11-01T16:30:00Z,28.9818,-94.9186,1017.1,11111222 
TABS,ioos:station:wmo:42043:1,2010-11-01T17:00:00Z,28.9818,-94.9186,1016.89,11111222 
TABS,ioos:station:wmo:42043:1,2010-11-01T17:30:00Z,28.9818,-94.9186,1016.85,11111222 
TABS,ioos:station:wmo:42043:1,2010-11-01T18:00:00Z,28.9818,-94.9186,1016.74,11111222 
TABS,ioos:station:wmo:42043:1,2010-11-01T18:30:00Z,28.9818,-94.9186,1016.09,11111222 
TABS,ioos:station:wmo:42043:1,2010-11-01T19:00:00Z,28.9818,-94.9186,1015.99,11111222 
TABS,ioos:station:wmo:42043:1,2010-11-01T19:30:00Z,28.9818,-94.9186,1015.73,11111222 
TABS,ioos:station:wmo:42043:1,2010-11-01T20:00:00Z,28.9818,-94.9186,1015.18,11111222 
TABS,ioos:station:wmo:42043:1,2010-11-01T20:30:00Z,28.9818,-94.9186,1015.19,11111222 
TABS,ioos:station:wmo:42043:1,2010-11-01T21:00:00Z,28.9818,-94.9186,1015.0,11111222 
TABS,ioos:station:wmo:42043:1,2010-11-01T21:30:00Z,28.9818,-94.9186,1014.82,11111222 
TABS,ioos:station:wmo:42043:1,2010-11-01T22:00:00Z,28.9818,-94.9186,1014.95,11111222 
TABS,ioos:station:wmo:42043:1,2010-11-01T22:30:00Z,28.9818,-94.9186,1014.82,11111222 
TABS,ioos:station:wmo:42043:1,2010-11-01T23:00:00Z,28.9818,-94.9186,1014.95,11111222 
TABS,ioos:station:wmo:42043:1,2010-11-01T23:30:00Z,28.9818,-94.9186,1015.04,11111222 
TABS,ioos:station:wmo:42043:1,2010-11-02T00:00:00Z,28.9818,-94.9186,1015.32,11111222 
TABS,ioos:station:wmo:42043:1,2010-11-02T00:30:00Z,28.9818,-94.9186,1015.47,11111222 
TABS,ioos:station:wmo:42043:1,2010-11-02T01:00:00Z,28.9818,-94.9186,1015.78,11111222 
TABS,ioos:station:wmo:42043:1,2010-11-02T01:30:00Z,28.9818,-94.9186,1015.86,11111222 
TABS,ioos:station:wmo:42043:1,2010-11-02T02:00:00Z,28.9818,-94.9186,1015.9,11111222 
TABS,ioos:station:wmo:42043:1,2010-11-02T02:30:00Z,28.9818,-94.9186,1016.42,11111222 
TABS,ioos:station:wmo:42043:1,2010-11-02T03:00:00Z,28.9818,-94.9186,1016.58,11111222 
TABS,ioos:station:wmo:42043:1,2010-11-02T03:30:00Z,28.9818,-94.9186,1016.4,11111222 
TABS,ioos:station:wmo:42043:1,2010-11-02T04:00:00Z,28.9818,-94.9186,1015.26,11111222 
TABS,ioos:station:wmo:42043:1,2010-11-02T04:30:00Z,28.9818,-94.9186,1015.03,11111222 
TABS,ioos:station:wmo:42043:1,2010-11-02T05:00:00Z,28.9818,-94.9186,1014.83,11111222 
TABS,ioos:station:wmo:42043:1,2010-11-02T05:30:00Z,28.9818,-94.9186,1014.32,11111222 
TABS,ioos:station:wmo:42043:1,2010-11-02T06:00:00Z,28.9818,-94.9186,1013.54,11111222 
TABS,ioos:station:wmo:42043:1,2010-11-02T06:30:00Z,28.9818,-94.9186,1013.28,11111222 
TABS,ioos:station:wmo:42043:1,2010-11-02T07:00:00Z,28.9818,-94.9186,1013.96,11111222 
TABS,ioos:station:wmo:42043:1,2010-11-02T07:30:00Z,28.9818,-94.9186,1012.95,11111222 
TABS,ioos:station:wmo:42043:1,2010-11-02T08:00:00Z,28.9818,-94.9186,1012.88,11111222 
TABS,ioos:station:wmo:42043:1,2010-11-02T08:30:00Z,28.9818,-94.9186,1012.75,11111222 
TABS,ioos:station:wmo:42043:1,2010-11-02T09:00:00Z,28.9818,-94.9186,1012.83,11111222 
TABS,ioos:station:wmo:42043:1,2010-11-02T09:30:00Z,28.9818,-94.9186,1013.8,11111222 
TABS,ioos:station:wmo:42043:1,2010-11-02T10:00:00Z,28.9818,-94.9186,1014.29,11111222 
TABS,ioos:station:wmo:42043:1,2010-11-02T10:30:00Z,28.9818,-94.9186,1014.77,11111222 
TABS,ioos:station:wmo:42043:1,2010-11-02T11:00:00Z,28.9818,-94.9186,1014.57,11111222 
TABS,ioos:station:wmo:42043:1,2010-11-02T11:30:00Z,28.9818,-94.9186,1015.67,11111222 
TABS,ioos:station:wmo:42043:1,2010-11-02T12:00:00Z,28.9818,-94.9186,1015.89,11111222 
TABS,ioos:station:wmo:42043:1,2010-11-02T12:30:00Z,28.9818,-94.9186,1015.77,11111222 
TABS,ioos:station:wmo:42043:1,2010-11-02T13:00:00Z,28.9818,-94.9186,1015.61,11111222 
TABS,ioos:station:wmo:42043:1,2010-11-02T13:30:00Z,28.9818,-94.9186,1017.28,11111222 
TABS,ioos:station:wmo:42043:1,2010-11-02T14:00:00Z,28.9818,-94.9186,1014.61,11111222 
TABS,ioos:station:wmo:42043:1,2010-11-02T14:30:00Z,28.9818,-94.9186,1014.78,11111222 
TABS,ioos:station:wmo:42043:1,2010-11-02T15:00:00Z,28.9818,-94.9186,1014.78,11111222 
TABS,ioos:station:wmo:42043:1,2010-11-02T15:30:00Z,28.9818,-94.9186,1014.58,11111222 
TABS,ioos:station:wmo:42043:1,2010-11-02T16:00:00Z,28.9818,-94.9186,1015.1,11111222 
TABS,ioos:station:wmo:42043:1,2010-11-02T16:30:00Z,28.9818,-94.9186,1014.91,11111222 
TABS,ioos:station:wmo:42043:1,2010-11-02T17:00:00Z,28.9818,-94.9186,1014.7,11111222 
TABS,ioos:station:wmo:42043:1,2010-11-02T17:30:00Z,28.9818,-94.9186,1014.55,11111222 
TABS,ioos:station:wmo:42043:1,2010-11-02T18:00:00Z,28.9818,-94.9186,1014.13,11111222 
TABS,ioos:station:wmo:42043:1,2010-11-02T18:30:00Z,28.9818,-94.9186,1013.72,11111222 
TABS,ioos:station:wmo:42043:1,2010-11-02T19:00:00Z,28.9818,-94.9186,1013.13,11111222 
TABS,ioos:station:wmo:42043:1,2010-11-02T19:30:00Z,28.9818,-94.9186,1012.8,11111222 
TABS,ioos:station:wmo:42043:1,2010-11-02T20:00:00Z,28.9818,-94.9186,1012.54,11111222 
TABS,ioos:station:wmo:42043:1,2010-11-02T20:30:00Z,28.9818,-94.9186,1012.31,11111222 
TABS,ioos:station:wmo:42043:1,2010-11-02T21:00:00Z,28.9818,-94.9186,1012.24,11111222 
TABS,ioos:station:wmo:42043:1,2010-11-02T21:30:00Z,28.9818,-94.9186,1012.2,11111222 
TABS,ioos:station:wmo:42043:1,2010-11-02T22:00:00Z,28.9818,-94.9186,1012.08,11111222 
TABS,ioos:station:wmo:42043:1,2010-11-02T22:30:00Z,28.9818,-94.9186,1012.15,11111222 
TABS,ioos:station:wmo:42043:1,2010-11-02T23:00:00Z,28.9818,-94.9186,1012.21,11111222 
TABS,ioos:station:wmo:42043:1,2010-11-02T23:30:00Z,28.9818,-94.9186,1012.63,11111222 
TABS,ioos:station:wmo:42043:1,2010-11-03T00:00:00Z,28.9818,-94.9186,1013.0,11111222 
TABS,ioos:station:wmo:42043:1,2010-11-03T00:30:00Z,28.9818,-94.9186,1013.44,11111222 
TABS,ioos:station:wmo:42043:1,2010-11-03T01:00:00Z,28.9818,-94.9186,1013.62,11111222 
TABS,ioos:station:wmo:42043:1,2010-11-03T01:30:00Z,28.9818,-94.9186,1013.42,11111222 
TABS,ioos:station:wmo:42043:1,2010-11-03T02:00:00Z,28.9818,-94.9186,1013.6,11111222 
TABS,ioos:station:wmo:42043:1,2010-11-03T02:30:00Z,28.9818,-94.9186,1013.65,11111222 
TABS,ioos:station:wmo:42043:1,2010-11-03T03:00:00Z,28.9818,-94.9186,1013.76,11111222 
TABS,ioos:station:wmo:42043:1,2010-11-03T03:30:00Z,28.9818,-94.9186,1013.89,11111222 
TABS,ioos:station:wmo:42043:1,2010-11-03T04:00:00Z,28.9818,-94.9186,1014.11,11111222 
TABS,ioos:station:wmo:42043:1,2010-11-03T04:30:00Z,28.9818,-94.9186,1013.47,11111222 
TABS,ioos:station:wmo:42043:1,2010-11-03T05:00:00Z,28.9818,-94.9186,1013.37,11111222 
TABS,ioos:station:wmo:42043:1,2010-11-03T05:30:00Z,28.9818,-94.9186,1012.91,11111222 
TABS,ioos:station:wmo:42043:1,2010-11-03T06:00:00Z,28.9818,-94.9186,1012.7,11111222 
TABS,ioos:station:wmo:42043:1,2010-11-03T06:30:00Z,28.9818,-94.9186,1012.48,11111222 
TABS,ioos:station:wmo:42043:1,2010-11-03T07:00:00Z,28.9818,-94.9186,1012.38,11111222 
TABS,ioos:station:wmo:42043:1,2010-11-03T07:30:00Z,28.9818,-94.9186,1012.14,11111222 
TABS,ioos:station:wmo:42043:1,2010-11-03T08:00:00Z,28.9818,-94.9186,1011.79,11111222 
TABS,ioos:station:wmo:42043:1,2010-11-03T08:30:00Z,28.9818,-94.9186,1011.76,11111222 
TABS,ioos:station:wmo:42043:1,2010-11-03T09:00:00Z,28.9818,-94.9186,1011.57,11111222 
TABS,ioos:station:wmo:42043:1,2010-11-03T09:30:00Z,28.9818,-94.9186,1011.44,11111222 
TABS,ioos:station:wmo:42043:1,2010-11-03T10:00:00Z,28.9818,-94.9186,1011.29,11111222 
TABS,ioos:station:wmo:42043:1,2010-11-03T10:30:00Z,28.9818,-94.9186,1011.19,11111222 
TABS,ioos:station:wmo:42043:1,2010-11-03T11:00:00Z,28.9818,-94.9186,1011.06,11111222 
TABS,ioos:station:wmo:42043:1,2010-11-03T11:30:00Z,28.9818,-94.9186,1011.3,11111222 
TABS,ioos:station:wmo:42043:1,2010-11-03T12:00:00Z,28.9818,-94.9186,1011.49,11111222 
TABS,ioos:station:wmo:42043:1,2010-11-03T12:30:00Z,28.9818,-94.9186,1011.6,11111222 
TABS,ioos:station:wmo:42043:1,2010-11-03T13:00:00Z,28.9818,-94.9186,1011.8,11111222 
TABS,ioos:station:wmo:42043:1,2010-11-03T13:30:00Z,28.9818,-94.9186,1012.13,11111222 
TABS,ioos:station:wmo:42043:1,2010-11-03T14:00:00Z,28.9818,-94.9186,1012.48,11111222 
TABS,ioos:station:wmo:42043:1,2010-11-03T14:30:00Z,28.9818,-94.9186,1012.7,11111222 
TABS,ioos:station:wmo:42043:1,2010-11-03T15:00:00Z,28.9818,-94.9186,1012.66,11111222 
TABS,ioos:station:wmo:42043:1,2010-11-03T15:30:00Z,28.9818,-94.9186,1012.66,11111222 
TABS,ioos:station:wmo:42043:1,2010-11-03T16:00:00Z,28.9818,-94.9186,1012.51,11111222 
TABS,ioos:station:wmo:42043:1,2010-11-03T16:30:00Z,28.9818,-94.9186,1012.22,11111222 
TABS,ioos:station:wmo:42043:1,2010-11-03T17:00:00Z,28.9818,-94.9186,1012.16,11111222 
TABS,ioos:station:wmo:42043:1,2010-11-03T17:30:00Z,28.9818,-94.9186,1011.77,11111222 
TABS,ioos:station:wmo:42043:1,2010-11-03T18:00:00Z,28.9818,-94.9186,1011.57,11111222 
TABS,ioos:station:wmo:42043:1,2010-11-03T18:30:00Z,28.9818,-94.9186,1011.24,11111222 
TABS,ioos:station:wmo:42043:1,2010-11-03T19:00:00Z,28.9818,-94.9186,1010.79,11111222 
TABS,ioos:station:wmo:42043:1,2010-11-03T19:30:00Z,28.9818,-94.9186,1010.76,11111222 
TABS,ioos:station:wmo:42043:1,2010-11-03T20:00:00Z,28.9818,-94.9186,1011.15,11111222 
TABS,ioos:station:wmo:42043:1,2010-11-03T20:30:00Z,28.9818,-94.9186,1011.01,11111222 
TABS,ioos:station:wmo:42043:1,2010-11-03T21:00:00Z,28.9818,-94.9186,1010.93,11111222 
TABS,ioos:station:wmo:42043:1,2010-11-03T21:30:00Z,28.9818,-94.9186,1010.82,11111222 
TABS,ioos:station:wmo:42043:1,2010-11-03T22:00:00Z,28.9818,-94.9186,1011.01,11111222 
TABS,ioos:station:wmo:42043:1,2010-11-03T22:30:00Z,28.9818,-94.9186,1011.32,11111222 
TABS,ioos:station:wmo:42043:1,2010-11-03T23:00:00Z,28.9818,-94.9186,1011.73,11111222 
TABS,ioos:station:wmo:42043:1,2010-11-03T23:30:00Z,28.9818,-94.9186,1011.4,11111222 
TABS,ioos:station:wmo:42043:1,2010-11-04T00:00:00Z,28.9818,-94.9186,1012.07,11111222 
TABS,ioos:station:wmo:42043:1,2010-11-04T00:30:00Z,28.9818,-94.9186,1012.56,11111222 
TABS,ioos:station:wmo:42043:1,2010-11-04T01:00:00Z,28.9818,-94.9186,1012.83,11111222 
TABS,ioos:station:wmo:42043:1,2010-11-04T01:30:00Z,28.9818,-94.9186,1012.8,11111222 
TABS,ioos:station:wmo:42043:1,2010-11-04T02:00:00Z,28.9818,-94.9186,1013.0,11111222 
TABS,ioos:station:wmo:42043:1,2010-11-04T02:30:00Z,28.9818,-94.9186,1013.26,11111222 
TABS,ioos:station:wmo:42043:1,2010-11-04T03:00:00Z,28.9818,-94.9186,1013.64,11111222 
TABS,ioos:station:wmo:42043:1,2010-11-04T03:30:00Z,28.9818,-94.9186,1013.61,11111222 
TABS,ioos:station:wmo:42043:1,2010-11-04T04:00:00Z,28.9818,-94.9186,1013.86,11111222 
TABS,ioos:station:wmo:42043:1,2010-11-04T04:30:00Z,28.9818,-94.9186,1013.86,11111222 
TABS,ioos:station:wmo:42043:1,2010-11-04T05:00:00Z,28.9818,-94.9186,1013.82,11111222 
TABS,ioos:station:wmo:42043:1,2010-11-04T05:30:00Z,28.9818,-94.9186,1013.7,11111222 
TABS,ioos:station:wmo:42043:1,2010-11-04T06:00:00Z,28.9818,-94.9186,1013.49,11111222 
TABS,ioos:station:wmo:42043:1,2010-11-04T06:30:00Z,28.9818,-94.9186,1013.64,11111222 
TABS,ioos:station:wmo:42043:1,2010-11-04T07:00:00Z,28.9818,-94.9186,1013.27,11111222 
TABS,ioos:station:wmo:42043:1,2010-11-04T07:30:00Z,28.9818,-94.9186,1012.99,11111222 
TABS,ioos:station:wmo:42043:1,2010-11-04T08:00:00Z,28.9818,-94.9186,1013.28,11111222 
TABS,ioos:station:wmo:42043:1,2010-11-04T08:30:00Z,28.9818,-94.9186,1013.43,11111222 
TABS,ioos:station:wmo:42043:1,2010-11-04T09:00:00Z,28.9818,-94.9186,1013.41,11111222 
TABS,ioos:station:wmo:42043:1,2010-11-04T09:30:00Z,28.9818,-94.9186,1014.08,11111222 
TABS,ioos:station:wmo:42043:1,2010-11-04T10:00:00Z,28.9818,-94.9186,1014.03,11111222 
TABS,ioos:station:wmo:42043:1,2010-11-04T10:30:00Z,28.9818,-94.9186,1014.36,11111222 
TABS,ioos:station:wmo:42043:1,2010-11-04T11:00:00Z,28.9818,-94.9186,1014.73,11111222 
TABS,ioos:station:wmo:42043:1,2010-11-04T11:30:00Z,28.9818,-94.9186,1014.92,11111222 
TABS,ioos:station:wmo:42043:1,2010-11-04T12:00:00Z,28.9818,-94.9186,1015.71,11111222 
TABS,ioos:station:wmo:42043:1,2010-11-04T12:30:00Z,28.9818,-94.9186,1015.93,11111222 
TABS,ioos:station:wmo:42043:1,2010-11-04T13:00:00Z,28.9818,-94.9186,1017.22,11111222 
TABS,ioos:station:wmo:42043:1,2010-11-04T13:30:00Z,28.9818,-94.9186,1017.36,11111222 
TABS,ioos:station:wmo:42043:1,2010-11-04T14:00:00Z,28.9818,-94.9186,1017.63,11111222 
TABS,ioos:station:wmo:42043:1,2010-11-04T14:30:00Z,28.9818,-94.9186,1018.7,11111222 
TABS,ioos:station:wmo:42043:1,2010-11-04T15:00:00Z,28.9818,-94.9186,1018.84,11111222 
TABS,ioos:station:wmo:42043:1,2010-11-04T15:30:00Z,28.9818,-94.9186,1018.89,11111222 
TABS,ioos:station:wmo:42043:1,2010-11-04T16:00:00Z,28.9818,-94.9186,1019.31,11111222 
TABS,ioos:station:wmo:42043:1,2010-11-04T16:30:00Z,28.9818,-94.9186,1019.42,11111222 
TABS,ioos:station:wmo:42043:1,2010-11-04T17:00:00Z,28.9818,-94.9186,1018.38,11111222 
TABS,ioos:station:wmo:42043:1,2010-11-04T17:30:00Z,28.9818,-94.9186,1018.71,11111222 
TABS,ioos:station:wmo:42043:1,2010-11-04T18:00:00Z,28.9818,-94.9186,1018.13,11111222 
TABS,ioos:station:wmo:42043:1,2010-11-04T18:30:00Z,28.9818,-94.9186,1017.8,11111222 
TABS,ioos:station:wmo:42043:1,2010-11-04T19:00:00Z,28.9818,-94.9186,1017.3,11111222 
TABS,ioos:station:wmo:42043:1,2010-11-04T19:30:00Z,28.9818,-94.9186,1016.86,11111222 
TABS,ioos:station:wmo:42043:1,2010-11-04T20:00:00Z,28.9818,-94.9186,1016.5,11111222 
TABS,ioos:station:wmo:42043:1,2010-11-04T20:30:00Z,28.9818,-94.9186,1016.42,11111222 
TABS,ioos:station:wmo:42043:1,2010-11-04T21:00:00Z,28.9818,-94.9186,1015.71,11111222 
TABS,ioos:station:wmo:42043:1,2010-11-04T21:30:00Z,28.9818,-94.9186,1016.18,11111222 
TABS,ioos:station:wmo:42043:1,2010-11-04T22:00:00Z,28.9818,-94.9186,1016.54,11111222 
TABS,ioos:station:wmo:42043:1,2010-11-04T22:30:00Z,28.9818,-94.9186,1016.86,11111222 
TABS,ioos:station:wmo:42043:1,2010-11-04T23:00:00Z,28.9818,-94.9186,1016.82,11111222 
TABS,ioos:station:wmo:42043:1,2010-11-04T23:30:00Z,28.9818,-94.9186,1017.52,11111222 
TABS,ioos:station:wmo:42043:1,2010-11-05T00:00:00Z,28.9818,-94.9186,1018.03,11111222 
TABS,ioos:station:wmo:42043:1,2010-11-05T00:30:00Z,28.9818,-94.9186,1018.49,11111222 
TABS,ioos:station:wmo:42043:1,2010-11-05T01:00:00Z,28.9818,-94.9186,1018.88,11111222 
TABS,ioos:station:wmo:42043:1,2010-11-05T01:30:00Z,28.9818,-94.9186,1019.53,11111222 
TABS,ioos:station:wmo:42043:1,2010-11-05T02:00:00Z,28.9818,-94.9186,1019.36,11111222 
TABS,ioos:station:wmo:42043:1,2010-11-05T02:30:00Z,28.9818,-94.9186,1020.19,11111222 
TABS,ioos:station:wmo:42043:1,2010-11-05T03:00:00Z,28.9818,-94.9186,1020.61,11111222 
TABS,ioos:station:wmo:42043:1,2010-11-05T03:30:00Z,28.9818,-94.9186,1020.84,11111222 
TABS,ioos:station:wmo:42043:1,2010-11-05T04:00:00Z,28.9818,-94.9186,1021.27,11111222 
TABS,ioos:station:wmo:42043:1,2010-11-05T04:30:00Z,28.9818,-94.9186,1021.23,11111222 
TABS,ioos:station:wmo:42043:1,2010-11-05T05:00:00Z,28.9818,-94.9186,1021.13,11111222 
TABS,ioos:station:wmo:42043:1,2010-11-05T05:30:00Z,28.9818,-94.9186,1021.28,11111222 
TABS,ioos:station:wmo:42043:1,2010-11-05T06:00:00Z,28.9818,-94.9186,1021.31,11111222 
TABS,ioos:station:wmo:42043:1,2010-11-05T06:30:00Z,28.9818,-94.9186,1020.84,11111222 
TABS,ioos:station:wmo:42043:1,2010-11-05T07:00:00Z,28.9818,-94.9186,1021.09,11111222 
TABS,ioos:station:wmo:42043:1,2010-11-05T07:30:00Z,28.9818,-94.9186,1021.05,11111222 
TABS,ioos:station:wmo:42043:1,2010-11-05T08:00:00Z,28.9818,-94.9186,1020.76,11111222 
TABS,ioos:station:wmo:42043:1,2010-11-05T08:30:00Z,28.9818,-94.9186,1020.74,11111222 
TABS,ioos:station:wmo:42043:1,2010-11-05T09:00:00Z,28.9818,-94.9186,1020.44,11111222 
TABS,ioos:station:wmo:42043:1,2010-11-05T09:30:00Z,28.9818,-94.9186,1020.69,11111222 
TABS,ioos:station:wmo:42043:1,2010-11-05T10:00:00Z,28.9818,-94.9186,1021.05,11111222 
TABS,ioos:station:wmo:42043:1,2010-11-05T10:30:00Z,28.9818,-94.9186,1021.34,11111222 
TABS,ioos:station:wmo:42043:1,2010-11-05T11:00:00Z,28.9818,-94.9186,1021.67,11111222 
TABS,ioos:station:wmo:42043:1,2010-11-05T11:30:00Z,28.9818,-94.9186,1021.85,11111222 
TABS,ioos:station:wmo:42043:1,2010-11-05T12:00:00Z,28.9818,-94.9186,1022.4,11111222 
TABS,ioos:station:wmo:42043:1,2010-11-05T12:30:00Z,28.9818,-94.9186,1022.56,11111222 
TABS,ioos:station:wmo:42043:1,2010-11-05T13:00:00Z,28.9818,-94.9186,1022.99,11111222 
TABS,ioos:station:wmo:42043:1,2010-11-05T13:30:00Z,28.9818,-94.9186,1023.54,11111222 
TABS,ioos:station:wmo:42043:1,2010-11-05T14:00:00Z,28.9818,-94.9186,1023.79,11111222 
TABS,ioos:station:wmo:42043:1,2010-11-05T14:30:00Z,28.9818,-94.9186,1024.07,11111222 
TABS,ioos:station:wmo:42043:1,2010-11-05T15:00:00Z,28.9818,-94.9186,1024.41,11111222 
TABS,ioos:station:wmo:42043:1,2010-11-05T15:30:00Z,28.9818,-94.9186,1024.41,11111222 
TABS,ioos:station:wmo:42043:1,2010-11-05T16:00:00Z,28.9818,-94.9186,1024.48,11111222 
TABS,ioos:station:wmo:42043:1,2010-11-05T16:30:00Z,28.9818,-94.9186,1024.52,11111222 
TABS,ioos:station:wmo:42043:1,2010-11-05T17:00:00Z,28.9818,-94.9186,1024.28,11111222 
TABS,ioos:station:wmo:42043:1,2010-11-05T17:30:00Z,28.9818,-94.9186,1023.81,11111222 
TABS,ioos:station:wmo:42043:1,2010-11-05T18:00:00Z,28.9818,-94.9186,1023.41,11111222 
TABS,ioos:station:wmo:42043:1,2010-11-05T18:30:00Z,28.9818,-94.9186,1022.87,11111222 
TABS,ioos:station:wmo:42043:1,2010-11-05T19:00:00Z,28.9818,-94.9186,1022.62,11111222 
TABS,ioos:station:wmo:42043:1,2010-11-05T19:30:00Z,28.9818,-94.9186,1022.39,11111222 
TABS,ioos:station:wmo:42043:1,2010-11-05T20:00:00Z,28.9818,-94.9186,1022.01,11111222 
TABS,ioos:station:wmo:42043:1,2010-11-05T20:30:00Z,28.9818,-94.9186,1021.66,11111222 
TABS,ioos:station:wmo:42043:1,2010-11-05T21:00:00Z,28.9818,-94.9186,1021.52,11111222 
TABS,ioos:station:wmo:42043:1,2010-11-05T21:30:00Z,28.9818,-94.9186,1021.47,11111222 
TABS,ioos:station:wmo:42043:1,2010-11-05T22:00:00Z,28.9818,-94.9186,1021.44,11111222 
TABS,ioos:station:wmo:42043:1,2010-11-05T22:30:00Z,28.9818,-94.9186,1021.58,11111222 
TABS,ioos:station:wmo:42043:1,2010-11-05T23:00:00Z,28.9818,-94.9186,1021.73,11111222 
TABS,ioos:station:wmo:42043:1,2010-11-05T23:30:00Z,28.9818,-94.9186,1021.81,11111222 
TABS,ioos:station:wmo:42043:1,2010-11-06T00:00:00Z,28.9818,-94.9186,1022.06,11111222 
TABS,ioos:station:wmo:42043:1,2010-11-06T00:30:00Z,28.9818,-94.9186,1022.6,11111222 
TABS,ioos:station:wmo:42043:1,2010-11-06T01:00:00Z,28.9818,-94.9186,1022.93,11111222 
TABS,ioos:station:wmo:42043:1,2010-11-06T01:30:00Z,28.9818,-94.9186,1023.37,11111222 
TABS,ioos:station:wmo:42043:1,2010-11-06T02:00:00Z,28.9818,-94.9186,1023.64,11111222 
TABS,ioos:station:wmo:42043:1,2010-11-06T02:30:00Z,28.9818,-94.9186,1024.09,11111222 
TABS,ioos:station:wmo:42043:1,2010-11-06T03:00:00Z,28.9818,-94.9186,1024.32,11111222 
TABS,ioos:station:wmo:42043:1,2010-11-06T03:30:00Z,28.9818,-94.9186,1024.57,11111222 
TABS,ioos:station:wmo:42043:1,2010-11-06T04:00:00Z,28.9818,-94.9186,1024.94,11111222 
TABS,ioos:station:wmo:42043:1,2010-11-06T04:30:00Z,28.9818,-94.9186,1024.89,11111222 
TABS,ioos:station:wmo:42043:1,2010-11-06T05:00:00Z,28.9818,-94.9186,1024.89,11111222 
TABS,ioos:station:wmo:42043:1,2010-11-06T05:30:00Z,28.9818,-94.9186,1025.07,11111222 
TABS,ioos:station:wmo:42043:1,2010-11-06T06:00:00Z,28.9818,-94.9186,1024.98,11111222 
TABS,ioos:station:wmo:42043:1,2010-11-06T06:30:00Z,28.9818,-94.9186,1024.94,11111222 
TABS,ioos:station:wmo:42043:1,2010-11-06T07:00:00Z,28.9818,-94.9186,1025.18,11111222 
TABS,ioos:station:wmo:42043:1,2010-11-06T07:30:00Z,28.9818,-94.9186,1025.17,11111222 
TABS,ioos:station:wmo:42043:1,2010-11-06T08:00:00Z,28.9818,-94.9186,1025.13,11111222 
TABS,ioos:station:wmo:42043:1,2010-11-06T08:30:00Z,28.9818,-94.9186,1025.03,11111222 
TABS,ioos:station:wmo:42043:1,2010-11-06T09:00:00Z,28.9818,-94.9186,1025.16,11111222 
TABS,ioos:station:wmo:42043:1,2010-11-06T09:30:00Z,28.9818,-94.9186,1025.37,11111222 
TABS,ioos:station:wmo:42043:1,2010-11-06T10:00:00Z,28.9818,-94.9186,1025.63,11111222 
TABS,ioos:station:wmo:42043:1,2010-11-06T10:30:00Z,28.9818,-94.9186,1025.66,11111222 
TABS,ioos:station:wmo:42043:1,2010-11-06T11:00:00Z,28.9818,-94.9186,1025.8,11111222 
TABS,ioos:station:wmo:42043:1,2010-11-06T11:30:00Z,28.9818,-94.9186,1026.15,11111222 
TABS,ioos:station:wmo:42043:1,2010-11-06T12:00:00Z,28.9818,-94.9186,1026.52,11111222 
TABS,ioos:station:wmo:42043:1,2010-11-06T12:30:00Z,28.9818,-94.9186,1026.9,11111222 
TABS,ioos:station:wmo:42043:1,2010-11-06T13:00:00Z,28.9818,-94.9186,1027.2,11111222 
TABS,ioos:station:wmo:42043:1,2010-11-06T13:30:00Z,28.9818,-94.9186,1027.53,11111222 
TABS,ioos:station:wmo:42043:1,2010-11-06T14:00:00Z,28.9818,-94.9186,1027.95,11111222 
TABS,ioos:station:wmo:42043:1,2010-11-06T14:30:00Z,28.9818,-94.9186,1028.3,11111222 
TABS,ioos:station:wmo:42043:1,2010-11-06T15:00:00Z,28.9818,-94.9186,1028.41,11111222 
TABS,ioos:station:wmo:42043:1,2010-11-06T15:30:00Z,28.9818,-94.9186,1028.7,11111222 
TABS,ioos:station:wmo:42043:1,2010-11-06T16:00:00Z,28.9818,-94.9186,1028.92,11111222 
TABS,ioos:station:wmo:42043:1,2010-11-06T16:30:00Z,28.9818,-94.9186,1028.83,11111222 
TABS,ioos:station:wmo:42043:1,2010-11-06T17:00:00Z,28.9818,-94.9186,1028.68,11111222 
TABS,ioos:station:wmo:42043:1,2010-11-06T17:30:00Z,28.9818,-94.9186,1028.59,11111222 
TABS,ioos:station:wmo:42043:1,2010-11-06T18:00:00Z,28.9818,-94.9186,1028.4,11111222 
TABS,ioos:station:wmo:42043:1,2010-11-06T18:30:00Z,28.9818,-94.9186,1027.98,11111222 